Location: Unspecified
(42.2936°N, 3.1641°W)
Time: 15:56:16
(UTC+02:00)

X-37B - Pass Details

Date: 13 March 2021
Orbit: 380 x 394 km, 45.0° (Epoch: 07 April)

Event Time Altitude Azimuth Distance (km) Brightness Sun altitude
Rises 19:52:09 0° 231° (SW) 2,258 5.3 -7.3°
Reaches altitude 10° 19:54:16 10° 223° (SW) 1,409 4.0 -7.7°
Maximum altitude 19:57:16 40° 152° (SSE) 586 1.2 -8.3°
Enters shadow 20:00:00 12° 83° (E) 1,303 2.6 -8.8°
